Regional Weather Roundup
Issued by NWS

Home | Current Version | Previous Version | Graphics & Text | Print | Product List | Glossary Off
Versions: 1 2 3 4 5 6 7 8 9 10 11 12 13 14 15 16 17 18 19 20 21 22 23 24 25 26 27 28 29 30 31 32 33 34 35 36 37 38 39 40 41 42 43 44 45 46 47 48 49 50

468
ASUS43 KTOP 240308
RWRKS

WEATHER ROUNDUP FOR KANSAS
NATIONAL WEATHER SERVICE GOODLAND KS
1000 PM CDT MON OCT 23 2017

NOTE:  "FAIR" INDICATES FEW OR NO CLOUDS BELOW 12,000 FEET WITH NO
SIGNIFICANT WEATHER AND/OR OBSTRUCTIONS TO VISIBILITY.

KSZ001>006-013>018-027>032-041>047-240400-
NORTHWEST KANSAS

CITY           SKY/WX    TMP DP  RH WIND       PRES   REMARKS
GOODLAND       CLEAR     43  20  39 NW12      30.42R
HAYS           CLEAR     43  22  43 W9        30.32R
HILL CITY      CLEAR     50  20  30 NW12      30.34R
RUSSELL        CLEAR     43  28  55 NW8       30.28R
$$

KSZ061>065-074>080-084>089-240400-
SOUTHWEST KANSAS

CITY           SKY/WX    TMP DP  RH WIND       PRES   REMARKS
DODGE CITY     CLEAR     49  19  30 N9        30.35R
ELKHART          N/A     46  24  42 NW8         N/A
GARDEN CITY    CLEAR     48  20  32 N13       30.38R
GREAT BEND     CLEAR     44  25  47 NW9       30.30R
LIBERAL        CLEAR     42  25  50 NW10      30.41R
PRATT          CLEAR     46  23  40 NW8       30.30R
$$

KSZ066>073-081>083-090>101-240400-
SOUTHEAST KANSAS

CITY           SKY/WX    TMP DP  RH WIND       PRES   REMARKS
CHANUTE        CLEAR     56  33  42 NW13      30.16R
COFFEYVILLE    CLEAR     53  37  54 NW8       30.16R
HUTCHINSON     CLEAR     53  28  38 N10       30.26R
MEDICINE LODGE   N/A     48  25  40 N7        30.28R
NEWTON         CLEAR     55  27  34 NW14      30.24R
PARSONS        CLEAR     51  35  54 NW6       30.17R
WICHITA INTL   CLEAR     56  28  34 N13       30.24R
WICHITA JABRA  CLEAR     57  27  31 NW17G24   30.23R
WICHITA MCCONL CLEAR     57  24  28 N14       30.23R
WINFIELD       CLEAR     52  35  52 NW10      30.24R
$$

KSZ007>012-019>026-033>040-048>060-102>105-240400-
NORTHEAST KANSAS

CITY           SKY/WX    TMP DP  RH WIND       PRES   REMARKS
CONCORDIA      CLEAR     51  31  46 NW13      30.23R
EMPORIA        CLEAR     54  30  40 NW14      30.18R
LAWRENCE       CLEAR     55  33  43 NW14G28   30.12R
MANHATTAN      CLEAR     56  32  40 NW9       30.18R
MARYSVILLE     CLEAR     52  32  46 NW16G23   30.16R
OLATHE IND     CLEAR     53  33  46 NW13      30.11R
OLATHE EXE     CLEAR     54  32  43 NW13G26   30.09R
SALINA         CLEAR     56  29  35 NW14      30.23S
TOPEKA BILLARD CLEAR     55  33  43 NW13      30.13R
TOPEKA FORBES  CLEAR     54  33  45 NW14      30.13R
$$




USA.gov is the U.S. government's official web portal to all federal, state and local government web resources and services.